Wind_Speed
10 11 12 12 13 12 12 12 12 13 13 13 13 12 12 12 13 14 15 15 16 16 17 18 19 20 20 20 20 19 18 17 16 16 15 15 14 13 13 12 10 9 8
10 11 11 12 13 12 13 13 14 14 14 14 14 14 14 14 14 15 16 16 17 17 17 17 18 21 21 22 22 22 21 20 19 18 18 17 16 15 15 14 13 12 10
10 10 11 12 13 13 13 14 14 15 16 16 16 16 16 17 17 17 17 17 18 18 18 18 19 20 22 22 23 24 23 22 21 21 20 19 19 18 17 16 15 14 13
10 11 12 13 13 14 14 14 15 15 16 16 17 17 17 17 18 18 19 19 19 20 20 20 20 21 23 24 24 25 25 25 24 23 23 22 21 20 19 18 17 16 15
11 11 12 13 14 14 15 15 16 16 16 16 17 17 18 18 18 18 19 20 21 22 22 22 22 22 23 24 25 26 27 27 27 26 25 24 23 23 22 21 20 19 18
10 11 12 13 14 14 15 15 15 16 16 17 17 18 19 19 19 18 19 20 21 22 22 23 24 24 24 25 26 27 28 28 29 28 28 27 26 25 25 24 23 21 20
10 11 12 13 13 14 14 15 15 16 16 17 17 18 19 19 19 19 19 20 21 22 23 24 25 26 26 26 27 27 28 30 31 31 30 30 29 28 27 27 26 24 23
9 10 11 11 12 13 14 15 15 16 16 17 17 18 19 19 19 20 20 21 22 23 24 24 26 27 28 29 29 29 30 30 31 32 32 32 31 31 30 29 29 28 26
8 9 10 11 12 13 14 15 15 16 16 17 18 18 19 20 21 21 21 21 22 23 24 25 26 27 28 29 30 31 31 32 32 33 34 34 34 34 33 32 32 31 30
8 9 10 11 12 13 14 14 15 16 16 17 18 19 20 21 22 22 23 23 23 24 25 26 27 27 28 30 31 32 33 33 34 33 34 35 35 35 36 36 35 34 33
7 9 10 11 12 13 14 15 15 16 17 18 19 19 20 21 22 23 24 25 25 26 26 27 28 29 29 30 32 33 34 35 35 35 35 36 37 37 37 37 37 37 36
8 10 11 12 13 14 15 16 17 18 18 19 20 21 21 22 23 24 25 26 27 27 28 29 30 31 31 32 32 33 35 36 37 37 37 38 38 38 38 38 38 39 38
8 10 12 13 14 15 16 18 19 20 20 20 21 22 23 23 24 25 26 27 28 29 29 30 31 32 33 34 35 35 36 37 38 39 39 39 39 39 40 40 40 40 40
9 11 13 14 15 17 18 20 21 22 22 23 24 24 25 25 25 25 26 27 28 30 31 32 33 33 34 35 36 37 38 38 39 40 40 41 41 41 41 41 42 42 42
11 12 14 16 18 19 21 22 23 23 24 25 26 26 27 27 27 27 27 28 29 30 32 34 34 35 36 37 37 38 39 40 41 41 41 41 42 43 43 43 43 43 43
13 14 16 18 20 21 22 24 24 25 26 27 28 28 29 29 29 29 29 29 30 30 32 34 36 36 37 38 39 40 40 41 42 42 43 43 43 44 44 45 45 44 44
15 17 18 20 22 23 25 26 26 26 27 28 29 30 31 31 31 31 31 31 31 31 32 34 36 38 38 39 39 41 42 42 43 44 44 45 45 45 46 46 46 46 46
17 19 21 22 23 25 26 27 28 28 29 30 31 32 32 32 33 33 33 33 32 32 32 32 35 37 39 40 40 40 42 43 44 45 45 45 46 46 47 48 48 48 48
20 21 23 24 26 27 28 29 30 30 31 32 33 33 34 34 34 34 33 33 33 33 32 32 34 36 38 40 40 41 41 43 44 46 46 46 46 47 48 48 49 49 49
23 24 26 27 28 29 30 31 32 32 33 33 34 35 35 35 35 34 34 34 34 34 34 34 34 35 36 38 40 41 41 43 44 45 46 47 47 47 48 49 49 50 51
26 27 28 29 30 31 32 34 34 34 35 35 36 36 36 37 36 35 35 34 35 35 35 35 34 34 35 37 39 40 40 42 43 44 46 47 48 48 48 49 50 50 51
28 29 30 31 32 33 34 35 35 36 36 36 37 38 38 38 37 36 36 36 36 36 36 35 35 35 35 37 38 39 39 40 41 44 45 46 48 48 48 49 50 50 50
30 31 33 34 34 35 36 36 37 37 37 38 39 38 38 38 38 37 37 37 37 37 36 36 35 35 36 37 37 38 38 39 39 41 43 44 47 48 49 49 50 50 51
33 34 35 36 36 37 37 38 38 39 39 40 40 40 39 39 39 38 38 37 37 37 37 36 36 36 36 37 37 37 38 39 39 40 42 43 45 47 48 50 50 50 51
36 37 37 38 38 39 39 39 40 40 41 41 42 41 40 39 40 39 38 38 38 38 37 37 36 36 36 37 37 37 38 38 39 40 42 42 44 46 47 48 49 51 51
38 39 40 40 41 41 41 41 42 42 43 43 43 43 42 41 41 40 40 39 38 38 38 37 36 36 37 37 37 37 38 38 39 39 41 42 43 45 45 46 48 50 51
Wind_Direction
287 291 297 296 297 295 294 294 290 286 286 283 282 281 276 272 263 260 260 258 255 253 251 249 243 234 229 227 226 222 220 218 217 216 213 210 207 205 205 205 204 202 199
288 294 297 299 298 295 295 295 293 290 289 287 282 280 276 273 269 265 263 257 254 254 254 251 246 238 232 230 228 226 224 222 221 220 219 217 215 212 211 210 211 210 209
288 293 296 297 297 296 295 295 293 292 289 286 283 281 279 276 273 268 264 259 257 255 253 250 247 244 240 235 231 228 227 226 225 224 223 222 220 219 217 216 216 215 214
286 290 294 296 298 298 297 297 296 294 291 288 284 282 281 277 274 269 264 262 259 255 252 252 250 247 244 241 236 232 230 230 228 227 226 225 224 223 222 222 221 220 219
288 290 293 295 297 298 298 298 296 294 293 290 287 285 281 279 277 272 267 265 262 259 255 252 251 248 246 243 241 236 234 233 230 230 229 227 226 226 225 225 224 224 224
292 293 296 300 301 302 302 301 298 297 295 293 290 287 283 280 278 276 272 268 264 260 257 254 252 249 247 244 243 240 237 235 233 232 231 230 229 228 228 227 227 227 227
300 300 302 303 304 305 306 305 303 300 297 295 291 288 285 282 279 276 273 270 267 263 258 255 253 251 248 247 245 245 242 240 237 235 234 233 232 231 230 229 229 228 229
309 310 309 308 309 309 309 308 306 304 300 297 294 291 289 285 281 277 274 271 267 264 261 259 256 252 250 247 246 245 245 244 241 238 238 236 235 234 232 231 231 230 230
316 317 315 315 316 316 315 312 310 308 305 302 298 295 292 289 286 282 278 273 269 266 264 261 259 255 252 250 248 247 246 246 244 242 240 239 238 236 235 233 232 232 232
319 321 320 320 320 320 320 317 314 311 308 305 302 299 295 292 289 286 282 277 272 268 265 263 260 258 255 252 250 248 248 247 246 244 242 240 239 238 236 235 234 233 233
324 325 324 324 323 322 322 320 319 317 314 310 307 304 300 296 292 289 285 281 275 270 266 263 261 259 257 253 251 249 248 247 246 245 244 243 242 239 238 236 235 235 234
328 331 331 329 329 328 326 323 320 317 314 312 309 307 304 299 295 291 287 283 279 274 270 265 262 259 257 255 253 251 250 248 247 247 246 244 243 241 239 238 237 235 235
331 334 335 334 334 332 330 327 324 320 316 313 311 308 306 303 299 294 289 285 281 277 273 269 265 261 258 256 254 253 251 249 248 247 247 245 243 242 240 239 237 237 236
328 331 332 333 333 331 329 328 325 322 318 315 312 310 308 306 302 298 293 288 284 280 276 271 267 264 261 259 256 253 252 251 250 249 247 246 244 242 242 240 238 237 236
322 325 327 326 326 326 326 325 324 322 320 318 315 312 309 307 304 300 295 291 286 282 278 275 271 266 263 261 258 255 253 251 250 250 248 247 245 243 241 240 239 238 236
316 319 321 322 322 322 322 322 322 321 319 318 317 315 312 309 305 302 298 294 289 284 279 276 274 270 266 262 259 257 254 252 250 249 248 247 245 243 242 240 238 238 238
309 312 315 317 319 320 320 319 320 319 319 318 317 315 314 311 308 305 301 297 292 287 281 277 274 272 269 265 261 257 255 253 251 249 248 247 245 243 241 240 239 237 237
306 308 311 314 315 317 318 318 318 317 316 316 315 314 313 312 310 306 303 300 296 291 286 280 276 273 270 267 264 260 256 254 252 250 248 247 245 244 243 241 240 239 238
304 307 309 311 313 315 317 317 316 315 315 315 315 314 313 312 310 308 305 302 298 294 290 284 279 275 271 268 265 262 258 255 252 251 249 248 246 244 243 241 240 239 238
302 305 307 309 311 313 314 315 315 315 314 314 314 314 313 312 311 308 306 303 300 296 293 289 285 279 274 270 267 264 261 258 255 252 250 248 246 244 242 241 240 239 238
301 303 305 307 309 311 311 312 314 313 313 314 313 313 313 312 311 308 306 304 301 297 294 291 288 283 278 273 269 266 263 260 257 253 251 249 246 245 243 241 240 239 239
299 302 304 306 308 310 311 312 313 312 312 313 313 312 311 311 309 307 305 303 301 298 295 292 289 285 280 276 272 269 265 262 258 255 252 249 247 245 243 242 240 239 239
298 301 303 305 307 308 309 311 311 311 311 312 312 311 310 309 308 307 305 303 301 298 296 292 290 286 281 278 274 271 267 263 259 256 253 250 248 245 243 242 240 239 238
297 300 303 304 305 307 308 309 310 310 311 311 310 310 309 308 308 306 305 303 301 298 296 293 289 286 282 278 275 272 268 264 260 257 254 251 248 246 244 242 240 239 237
298 300 302 303 304 306 307 308 308 309 310 310 309 309 308 307 307 306 304 302 300 298 296 293 289 286 282 278 275 273 269 265 261 258 255 252 248 246 245 243 241 238 237
298 300 301 302 303 305 306 306 307 308 308 308 308 308 307 306 305 304 303 302 299 297 295 293 290 286 282 279 276 274 270 266 261 258 255 252 249 247 244 243 241 239 237
Height
5881 5880 5880 5879 5878 5878 5877 5877 5876 5876 5877 5877 5877 5878 5878 5879 5879 5880 5881 5882 5883 5884 5885 5886 5887 5889 5891 5893 5895 5897 5899 5901 5903 5904 5906 5907 5909 5910 5912 5913 5915 5916 5917
5879 5879 5878 5877 5877 5876 5875 5875 5874 5874 5874 5874 5874 5875 5875 5876 5876 5877 5877 5878 5879 5880 5881 5882 5883 5885 5886 5889 5891 5894 5896 5898 5900 5902 5904 5905 5907 5908 5910 5911 5913 5915 5916
5877 5877 5876 5876 5875 5874 5873 5873 5872 5872 5871 5871 5871 5871 5872 5872 5872 5873 5874 5875 5875 5876 5877 5878 5879 5881 5882 5884 5887 5889 5892 5894 5896 5898 5900 5903 5904 5906 5908 5909 5911 5913 5914
5875 5875 5874 5873 5873 5872 5871 5871 5870 5869 5868 5868 5868 5868 5868 5868 5868 5869 5869 5870 5871 5872 5873 5874 5875 5876 5878 5880 5882 5884 5887 5890 5892 5894 5897 5899 5901 5903 5905 5907 5908 5910 5912
5873 5872 5872 5871 5870 5869 5869 5868 5867 5866 5866 5865 5865 5864 5864 5864 5864 5865 5865 5866 5866 5867 5868 5869 5870 5872 5873 5875 5877 5879 5881 5884 5887 5890 5892 5894 5897 5899 5901 5904 5906 5907 5909
5871 5870 5869 5868 5868 5867 5866 5865 5864 5863 5862 5861 5861 5860 5860 5860 5860 5860 5861 5861 5862 5862 5863 5864 5866 5867 5868 5870 5872 5874 5876 5878 5881 5884 5887 5889 5892 5895 5897 5900 5902 5904 5906
5868 5868 5867 5866 5865 5865 5863 5862 5861 5860 5859 5858 5857 5856 5856 5856 5856 5856 5856 5856 5857 5857 5858 5859 5860 5862 5863 5865 5867 5868 5870 5873 5875 5878 5881 5884 5887 5889 5892 5895 5897 5900 5902
5866 5865 5865 5864 5863 5862 5861 5859 5858 5857 5855 5855 5854 5853 5852 5852 5852 5852 5852 5851 5852 5852 5853 5853 5854 5856 5857 5859 5861 5863 5865 5867 5869 5872 5874 5877 5880 5884 5886 5889 5892 5895 5897
5864 5863 5863 5862 5861 5859 5858 5856 5855 5853 5852 5851 5850 5849 5848 5847 5847 5847 5846 5846 5846 5847 5847 5847 5848 5849 5851 5852 5854 5856 5858 5860 5862 5865 5867 5870 5873 5877 5880 5883 5886 5889 5892
5862 5861 5861 5859 5858 5857 5855 5853 5852 5850 5849 5847 5846 5844 5843 5842 5841 5841 5841 5841 5841 5841 5841 5841 5842 5843 5844 5845 5847 5849 5851 5853 5855 5858 5860 5863 5866 5869 5873 5876 5879 5882 5886
5861 5860 5858 5857 5856 5854 5852 5851 5849 5847 5845 5844 5842 5840 5839 5837 5836 5835 5834 5834 5834 5834 5834 5835 5835 5835 5836 5838 5839 5841 5843 5845 5848 5850 5852 5855 5858 5861 5864 5868 5871 5875 5879
5859 5858 5856 5855 5853 5851 5849 5848 5846 5844 5842 5840 5838 5836 5834 5832 5831 5829 5828 5827 5826 5826 5827 5827 5827 5828 5829 5830 5831 5833 5835 5837 5839 5842 5844 5847 5849 5853 5856 5860 5863 5867 5871
5857 5855 5854 5852 5850 5848 5846 5844 5842 5840 5837 5835 5833 5831 5829 5827 5825 5823 5822 5820 5819 5818 5818 5818 5819 5819 5820 5821 5823 5824 5826 5828 5830 5833 5835 5838 5841 5844 5847 5850 5854 5858 5862
5854 5852 5851 5849 5847 5845 5843 5840 5838 5835 5833 5830 5828 5825 5823 5821 5819 5817 5815 5813 5811 5810 5809 5809 5809 5810 5811 5812 5813 5815 5816 5818 5820 5823 5825 5828 5831 5834 5838 5841 5845 5849 5853
5851 5849 5848 5846 5844 5842 5839 5836 5833 5831 5828 5825 5822 5819 5816 5814 5811 5809 5807 5805 5804 5802 5801 5799 5799 5800 5800 5802 5803 5804 5806 5808 5810 5812 5815 5817 5821 5824 5828 5832 5835 5839 5844
5847 5846 5844 5842 5840 5837 5834 5832 5829 5825 5822 5819 5816 5813 5809 5807 5804 5801 5799 5797 5795 5794 5792 5790 5789 5789 5789 5791 5792 5793 5795 5796 5799 5801 5804 5807 5810 5813 5817 5821 5825 5830 5834
5843 5842 5840 5837 5835 5832 5829 5826 5823 5820 5816 5813 5809 5806 5802 5799 5796 5793 5790 5787 5785 5784 5783 5781 5779 5778 5778 5779 5780 5781 5783 5785 5787 5789 5792 5795 5798 5802 5806 5810 5814 5819 5824
5839 5837 5834 5832 5829 5827 5823 5820 5817 5813 5810 5806 5802 5799 5795 5791 5787 5784 5781 5778 5775 5773 5772 5771 5769 5767 5767 5767 5768 5769 5771 5773 5775 5777 5780 5783 5787 5790 5794 5799 5803 5808 5813
5833 5831 5829 5826 5823 5820 5817 5814 5810 5806 5803 5799 5795 5791 5787 5783 5779 5775 5772 5768 5765 5763 5761 5760 5758 5757 5756 5755 5756 5757 5758 5760 5763 5765 5768 5771 5775 5778 5782 5787 5791 5796 5801
5828 5825 5823 5820 5817 5814 5810 5807 5803 5799 5795 5791 5787 5783 5778 5774 5770 5766 5762 5759 5756 5753 5751 5749 5748 5746 5745 5744 5744 5745 5746 5748 5750 5753 5755 5758 5762 5766 5770 5775 5780 5784 5789
5821 5819 5816 5813 5810 5807 5803 5800 5796 5791 5787 5783 5779 5774 5770 5765 5761 5757 5753 5750 5746 5743 5741 5739 5737 5735 5734 5732 5732 5733 5734 5735 5738 5740 5742 5746 5749 5753 5757 5762 5766 5771 5777
5814 5812 5808 5806 5803 5799 5796 5792 5787 5783 5779 5774 5770 5765 5761 5756 5752 5748 5744 5740 5736 5733 5730 5728 5726 5725 5723 5721 5721 5721 5722 5724 5726 5727 5729 5733 5736 5740 5744 5749 5753 5759 5764
5807 5804 5801 5798 5795 5791 5787 5783 5779 5774 5770 5766 5761 5756 5752 5747 5743 5738 5734 5730 5726 5723 5720 5718 5716 5713 5712 5710 5709 5710 5710 5711 5713 5714 5716 5720 5723 5727 5731 5735 5740 5746 5751
5798 5796 5792 5789 5786 5782 5778 5774 5769 5765 5761 5756 5751 5747 5742 5737 5733 5728 5724 5720 5716 5712 5709 5707 5705 5703 5700 5699 5698 5698 5698 5699 5701 5702 5704 5707 5710 5713 5718 5722 5727 5733 5738
5789 5786 5783 5780 5776 5772 5768 5764 5759 5755 5751 5746 5741 5736 5732 5727 5722 5718 5714 5710 5706 5702 5698 5695 5693 5691 5689 5687 5686 5686 5686 5687 5689 5690 5691 5694 5698 5700 5705 5709 5714 5719 5725
5779 5776 5773 5769 5766 5762 5758 5753 5749 5744 5740 5736 5731 5726 5721 5716 5712 5707 5703 5699 5695 5691 5687 5685 5682 5680 5678 5676 5675 5674 5674 5675 5676 5678 5679 5681 5684 5687 5692 5697 5701 5706 5712